Regional Weather Roundup
Issued by NWS Bismarck, ND

Home | Current Version | Previous Version | Text Only | Print | Product List | Glossary On
Versions: 1 2 3 4 5 6 7 8 9 10 11 12 13 14 15 16 17 18 19 20 21 22 23 24 25 26 27 28 29 30 31 32 33 34 35 36 37 38 39 40 41 42 43 44 45 46 47 48 49 50
000
ASUS43 KBIS 191010
RWRBIS

NWR BROADCAST TEXT
NATIONAL WEATHER SERVICE BISMARCK ND
500 AM CDT SAT AUG 19 2017

NOTE: "FAIR" INDICATES FEW OR NO CLOUDS BELOW 12,000 FEET WITH NO
SIGNIFICANT WEATHER AND/OR OBSTRUCTIONS TO VISIBILITY.


CITY           SKY/WX    TMP DP  RH WIND       PRES   REMARKS
WILLISTON      CLEAR     64  53  67 S5        29.77F
MINOT          CLEAR     69  54  58 S14G25    29.80F
MINOT AFB      CLEAR     66  53  63 S14       29.77F
BISMARCK       CLEAR     59  55  87 NE5       29.87F
DICKINSON      CLEAR     59  52  77 SE10      29.82F
GARRISON         N/A     59  56  89 CALM      29.84F
HETTINGER ARPT CLEAR     60  50  69 SE9       29.87F
JAMESTOWN      CLEAR     56  53  90 SW5       29.87F
CARRINGTON     FAIR      59  54  82 SW8       29.88F
HAZEN          FAIR      63  55  77 S12       29.85S
LINTON         FAIR      55  54  94 E8        29.91F
MANDAN         FAIR      59  55  88 S7        29.87F
RUGBY          FAIR      59  55  88 S9        29.82S
STANLEY        PTSUNNY   59  57  94 S7        29.83F
TIOGA          FAIR      59  57  94 S6        29.81F
WATFORD CITY   FAIR      63  50  63 S6        29.79F
$$

CITY           SKY/WX    TMP DP  RH WIND       PRES   REMARKS
GRAND FORKS    CLEAR     56  54  93 SW7       29.83S
GRAND FORKS AF CLEAR     57  54  89 W6        29.83F
DEVILS LAKE    CLEAR     65  55  70 SW8       29.85F
FARGO          CLEAR     59  57  93 S8        29.87S
CANDO          FAIR      54  54 100 SW6       29.85F
CAVALIER       FAIR      55  54  94 S5        29.80F
GRAFTON        FAIR      52  52 100 SW6       29.83F
GWINNER        SUNNY     54  54 100 CALM      29.90S
LANGDON        FAIR      54  54 100 S6        29.84F
ROLLA          PTSUNNY   57  54  88 SW9       29.83F
WALHALLA       FAIR      59  59 100 CALM      29.80F
$$

CITY           SKY/WX    TMP DP  RH WIND       PRES   REMARKS
ABERDEEN       CLEAR     50  50 100 S6        29.92S
MOBRIDGE       CLEAR     62  59  90 S9        29.88F
BUFFALO          N/A     59  48  67 S7        29.80F
RAPID CITY     CLEAR     57  49  74 SE8       29.91F
GLASGOW        CLOUDY    61  41  47 SE5       29.74R
SIDNEY         PTCLDY    61  50  67 S6        29.77F
WOLF POINT     PTCLDY    60  45  57 CALM      29.74S
GLENDIVE       PTCLDY    61  40  45 SW8       29.79F
MILES CITY     CLEAR     63  29  27 SE10      29.80R
BAKER          CLEAR     55  44  66 SE7       29.85S
$$

CITY           SKY/WX    TMP DP  RH WIND       PRES   REMARKS
BILLINGS       PTCLDY    67  29  24 SW13      29.91R
GREAT FALLS    CLOUDY    70  28  21 SW14      29.91R
REGINA         MOCLDY    61  46  59 S9        29.67S
ESTEVAN        PTCLDY    64  54  68 S13       29.74F
$$





USA.gov is the U.S. government's official web portal to all federal, state and local government web resources and services.